St. James, MN

3:16 AM CST on December 07, 2019 (GMT -0600)
Saint James Municipal

Weather History for KJYG - June, 2019

Change the Weather History Date:

Friday, June 14, 2019

  Actual Average Record
Temperature  
Mean Temperature 74 °F -  
Max Temperature 84 °F 82 °F 100 °F (1979)
Min Temperature 64 °F 58 °F 41 °F (1989)
Cooling Degree Days 9    
Growing Degree Days 24 (Base 50)    
Moisture  
Dew Point 57 °F    
Average Humidity 52    
Maximum Humidity 64    
Minimum Humidity 45    
Precipitation  
Precipitation 0.00 in - - ()
Sea Level Pressure  
Sea Level Pressure 29.70 in    
Wind  
Wind Speed 14 mph (SSW)    
Max Wind Speed 29 mph    
Max Gust Speed 36 mph    
Visibility 10 miles    
Events      
Averages and records for this station are not official NWS values.
T = Trace of Precipitation, MM = Missing Value Source: NWS Daily Summary

Daily Weather History Graph

Daily Weather History Graph

Search for Another Location

Airport or City:

Astronomy

Jun. 14, 2019 Rise Set
Actual Time 5:34 AM CDT 9:02 PM CDT
Civil Twilight 4:58 AM CDT 9:38 PM CDT
Nautical Twilight 4:11 AM CDT 10:26 PM CDT
Astronomical Twilight 3:10 AM CDT 11:26 PM CDT
Moon 6:19 PM CDT (6/14) 4:00 AM CDT (6/14)
Length of Visible Light 16h 40m
Length of Day
15h 27m
Waxing Gibbous, 92% of the Moon is Illuminated
Jun 14
Waxing Gibbous
Jun 17
Full
Jun 25
Last Quarter
Jul 2
New
Jul 9
First Quarter

Hourly Weather History & Observations

Time (CDT) Temp. Heat Index Dew Point Humidity Pressure Visibility Wind Dir Wind Speed Gust Speed Precip Events Conditions
12:25 AM 66.2 °F - 48.2 °F 52% 29.86 in 10.0 mi SSE 9.2 mph - N/A   Clear
12:40 AM 66.2 °F - 48.2 °F 52% 29.85 in 10.0 mi SSE 10.4 mph - N/A   Clear
12:56 AM 66.2 °F - 46.4 °F 49% 29.84 in 10.0 mi SSE 12.7 mph - N/A   Clear
1:15 AM 66.2 °F - 48.2 °F 52% 29.84 in 10.0 mi SE 11.5 mph - N/A   Clear
1:42 AM 66.2 °F - 48.2 °F 52% 29.83 in 10.0 mi SSE 12.7 mph - N/A   Clear
1:57 AM 66.2 °F - 48.2 °F 52% 29.82 in 10.0 mi South 11.5 mph - N/A   Clear
2:15 AM 66.2 °F - 48.2 °F 52% 29.82 in 10.0 mi South 16.1 mph 20.7 mph N/A   Clear
2:16 AM 66.2 °F - 50.0 °F 56% 29.82 in 10.0 mi South 15.0 mph 20.7 mph N/A   Clear
2:43 AM 66.2 °F - 50.0 °F 56% 29.81 in 10.0 mi South 13.8 mph - N/A   Scattered Clouds
2:59 AM 66.2 °F - 50.0 °F 56% 29.80 in 10.0 mi South 12.7 mph - N/A   Scattered Clouds
3:15 AM 66.2 °F - 51.8 °F 60% 29.80 in 10.0 mi South 15.0 mph - N/A   Clear
3:45 AM 66.2 °F - 51.8 °F 60% 29.78 in 10.0 mi South 15.0 mph - N/A   Clear
4:00 AM 64.4 °F - 51.8 °F 64% 29.78 in 10.0 mi South 13.8 mph - N/A   Clear
4:15 AM 64.4 °F - 51.8 °F 64% 29.78 in 10.0 mi South 12.7 mph - N/A   Clear
4:35 AM 64.4 °F - 51.8 °F 64% 29.77 in 10.0 mi South 12.7 mph - N/A   Clear
5:02 AM 64.4 °F - 51.8 °F 64% 29.76 in 10.0 mi South 12.7 mph - N/A   Clear
5:17 AM 64.4 °F - 51.8 °F 64% 29.76 in 10.0 mi South 12.7 mph - N/A   Clear
5:35 AM 64.4 °F - 51.8 °F 64% 29.76 in 10.0 mi South 11.5 mph - N/A   Clear
6:03 AM 64.4 °F - 51.8 °F 64% 29.75 in 10.0 mi South 13.8 mph - N/A   Clear
6:19 AM 64.4 °F - 51.8 °F 64% 29.76 in 10.0 mi South 13.8 mph - N/A   Clear
6:35 AM 66.2 °F - 51.8 °F 60% 29.76 in 10.0 mi South 11.5 mph - N/A   Clear
7:05 AM 68.0 °F - 51.8 °F 56% 29.75 in 10.0 mi South 12.7 mph - N/A   Clear
7:20 AM 69.8 °F - 51.8 °F 53% 29.75 in 10.0 mi SSW 16.1 mph 19.6 mph N/A   Clear
7:35 AM 71.6 °F - 51.8 °F 50% 29.74 in 10.0 mi SSW 17.3 mph 20.7 mph N/A   Clear
7:55 AM 71.6 °F - 53.6 °F 53% 29.74 in 10.0 mi SSW 15.0 mph 23.0 mph N/A   Clear
8:22 AM 73.4 °F - 53.6 °F 50% 29.74 in 10.0 mi SSW 16.1 mph 26.5 mph N/A   Clear
8:37 AM 73.4 °F - 53.6 °F 50% 29.73 in 10.0 mi SW 20.7 mph 27.6 mph N/A   Clear
8:55 AM 75.2 °F - 53.6 °F 47% 29.73 in 10.0 mi SSW 21.9 mph 32.2 mph N/A   Clear
9:23 AM 73.4 °F - 55.4 °F 53% 29.73 in 10.0 mi SW 28.8 mph 35.7 mph N/A   Clear
9:38 AM 73.4 °F - 55.4 °F 53% 29.73 in 10.0 mi SSW 26.5 mph 33.4 mph N/A   Clear
9:55 AM 73.4 °F - 55.4 °F 53% 29.73 in 10.0 mi SW 24.2 mph 31.1 mph N/A   Clear
9:56 AM 73.4 °F - 55.4 °F 53% 29.73 in 10.0 mi SW 21.9 mph 31.1 mph N/A   Clear
10:25 AM 73.4 °F - 57.2 °F 57% 29.72 in 10.0 mi SW 27.6 mph 34.5 mph N/A   Scattered Clouds
10:40 AM 73.4 °F - 57.2 °F 57% 29.72 in 10.0 mi SSW 24.2 mph 33.4 mph N/A   Clear
10:55 AM 75.2 °F - 57.2 °F 53% 29.71 in 10.0 mi SSW 24.2 mph 31.1 mph N/A   Clear
11:15 AM 75.2 °F - 57.2 °F 53% 29.70 in 10.0 mi SSW 23.0 mph 34.5 mph N/A   Scattered Clouds
11:41 AM 78.8 °F - 59.0 °F 51% 29.69 in 10.0 mi SSW 20.7 mph 28.8 mph N/A   Clear
11:57 AM 80.6 °F 81.1 °F 59.0 °F 48% 29.68 in 10.0 mi SSW 21.9 mph 31.1 mph N/A   Clear
12:15 PM 78.8 °F - 59.0 °F 51% 29.69 in 10.0 mi SW 19.6 mph 28.8 mph N/A   Scattered Clouds
12:43 PM 80.6 °F 81.1 °F 59.0 °F 48% 29.68 in 10.0 mi SSW 21.9 mph 28.8 mph N/A   Scattered Clouds
12:58 PM 80.6 °F 81.5 °F 60.8 °F 51% 29.67 in 10.0 mi SSW 20.7 mph 28.8 mph N/A   Scattered Clouds
1:15 PM 80.6 °F 81.5 °F 60.8 °F 51% 29.66 in 10.0 mi SW 19.6 mph 25.3 mph N/A   Clear
1:16 PM 80.6 °F 81.5 °F 60.8 °F 51% 29.66 in 10.0 mi SSW 17.3 mph 25.3 mph N/A   Clear
1:44 PM 82.4 °F 82.9 °F 60.8 °F 48% 29.66 in 10.0 mi SSW 15.0 mph 26.5 mph N/A   Clear
2:00 PM 82.4 °F 82.9 °F 60.8 °F 48% 29.65 in 10.0 mi SSW 12.7 mph 25.3 mph N/A   Clear
2:15 PM 82.4 °F 82.9 °F 60.8 °F 48% 29.65 in 10.0 mi SSW 16.1 mph 21.9 mph N/A   Clear
2:35 PM 82.4 °F 82.9 °F 60.8 °F 48% 29.64 in 10.0 mi SSW 15.0 mph 21.9 mph N/A   Clear
2:46 PM 82.4 °F 82.9 °F 60.8 °F 48% 29.64 in 10.0 mi SW 18.4 mph 23.0 mph N/A   Clear
3:01 PM 82.4 °F 82.9 °F 60.8 °F 48% 29.64 in 10.0 mi SW 9.2 mph 21.9 mph N/A   Clear
3:17 PM 84.2 °F 84.4 °F 60.8 °F 45% 29.64 in 10.0 mi South 12.7 mph 19.6 mph N/A   Clear
3:35 PM 84.2 °F 84.4 °F 60.8 °F 45% 29.63 in 10.0 mi SSW 15.0 mph 24.2 mph N/A   Scattered Clouds
4:03 PM 84.2 °F 84.4 °F 60.8 °F 45% 29.63 in 10.0 mi South 15.0 mph 21.9 mph N/A   Clear
4:18 PM 84.2 °F 84.4 °F 60.8 °F 45% 29.63 in 10.0 mi SSW 12.7 mph 21.9 mph N/A   Scattered Clouds
4:35 PM 84.2 °F 84.4 °F 60.8 °F 45% 29.63 in 10.0 mi South 12.7 mph 20.7 mph N/A   Scattered Clouds
5:04 PM 84.2 °F 84.4 °F 60.8 °F 45% 29.62 in 10.0 mi SSW 9.2 mph 12.7 mph N/A   Scattered Clouds
5:20 PM 84.2 °F 85.0 °F 62.6 °F 48% 29.62 in 10.0 mi South 12.7 mph 16.1 mph N/A   Clear
5:35 PM 84.2 °F 85.0 °F 62.6 °F 48% 29.62 in 10.0 mi South 13.8 mph 19.6 mph N/A   Scattered Clouds
5:54 PM 84.2 °F 85.0 °F 62.6 °F 48% 29.61 in 10.0 mi South 11.5 mph - N/A   Scattered Clouds
6:06 PM 84.2 °F 85.0 °F 62.6 °F 48% 29.61 in 10.0 mi South 11.5 mph - N/A   Scattered Clouds
6:21 PM 84.2 °F 84.4 °F 60.8 °F 45% 29.61 in 10.0 mi South 11.5 mph 17.3 mph N/A   Mostly Cloudy
6:36 PM 82.4 °F 83.4 °F 62.6 °F 51% 29.61 in 10.0 mi SSW 10.4 mph - N/A   Scattered Clouds
6:55 PM 84.2 °F 85.0 °F 62.6 °F 48% 29.60 in 10.0 mi South 15.0 mph - N/A   Clear
6:56 PM 84.2 °F 85.0 °F 62.6 °F 48% 29.60 in 10.0 mi South 13.8 mph - N/A   Clear
7:23 PM 84.2 °F 85.0 °F 62.6 °F 48% 29.60 in 10.0 mi South 13.8 mph 19.6 mph N/A   Clear
7:38 PM 84.2 °F 85.0 °F 62.6 °F 48% 29.60 in 10.0 mi SSW 10.4 mph 20.7 mph N/A   Clear
7:55 PM 82.4 °F 83.4 °F 62.6 °F 51% 29.60 in 10.0 mi South 11.5 mph - N/A   Clear
8:24 PM 82.4 °F 83.4 °F 62.6 °F 51% 29.60 in 10.0 mi South 12.7 mph - N/A   Clear
8:39 PM 80.6 °F 81.8 °F 62.6 °F 54% 29.60 in 10.0 mi South 13.8 mph - N/A   Clear
8:55 PM 80.6 °F 81.8 °F 62.6 °F 54% 29.61 in - South 10.4 mph - N/A   Clear
8:56 PM 80.6 °F 81.8 °F 62.6 °F 54% 29.61 in - South 10.4 mph - N/A   Clear
9:26 PM 78.8 °F - 62.6 °F 57% 29.62 in - South 9.2 mph - N/A   Clear
9:41 PM 78.8 °F - 62.6 °F 57% 29.63 in - South 10.4 mph - N/A   Clear